KUIPER-00089 (64834 NORAD) Tracking and Keplerian Element Data

This shows tracking and keplerian element data for the satellite.

Feedback or suggestion? Click here.




ElementValue
Catalog64834
NameKUIPER-00089
Epoch Orbit2372
Epoch Day354.05719087
Epoch Year2025
RAAN277.7222
Inclination51.9019
Eccentricity0.0002304
Argument of Perigee66.8896
Mean Anonmoly293.2309
Mean Motion14.7997927
Decay Rate3.246E-05
L11 64834U 25151U 25354.05719087 .00003246 00000+0 45420-3 0 9997
L22 64834 51.9019 277.7222 0002304 66.8896 293.2309 14.79979270 23720



Live tracking and technical data element details for KUIPER-00089 (NORAD 64834). KUIPER-00089 can be tracked NOW for your location showing map with azimuth and elevation plus other details from your city location.







IsCatalogInMostPopularTable: catalog: 64834, numindb: 5
Update: records affected: 1



GetName: 64834 KUIPER-00089

Hit Count: updated at: Wed, 15 Apr 2026 01:09:23 GMT